Location: Gwatt
(46.7204°N, 7.6223°E)
Time: 14:55:50
(UTC+00:00)

CREW DRAGON DEMO-1 DEB - Pass Details

Date: 18 September 2020
Orbit: 362 x 364 km, 51.6° (Epoch: 24 October)

Event Time Altitude Azimuth Distance (km) Brightness Sun altitude
Rises 18:26:50 0° 279° (W) 2,196 9.1 -9.7°
Reaches altitude 10° 18:29:00 10° 291° (WNW) 1,351 7.2 -10.1°
Maximum altitude 18:31:44 31° 356° (N) 675 4.3 -10.5°
Enters shadow 18:34:21 11° 60° (ENE) 1,307 5.1 -11.0°
